KLM27J EHAM-EGBB

Flight info

Callsign KLM27J
Flight time 0h 59m
Altitude 36000
Route IDRID L980 LAM L610 HEMEL
Aircraft B737/M-SDE2E3FGHIRWXY/LB1

Departure

Time 2026-04-27 06:45
Airport Amsterdam Airport Schiphol (EHAM)

Arrival

Time 2026-04-27 07:44
Airport Birmingham Airport (EGBB)
Time Latitude Longitude Altitude Speed Heading
2026-04-27 06:06 52.30790 4.77228 -2 ft 0 kts 183°
2026-04-27 06:26 52.30812 4.77233 -2 ft 4 kts 196°
2026-04-27 06:26 52.30831 4.77244 -2 ft 4 kts 155°
2026-04-27 06:27 52.30841 4.77225 -2 ft 4 kts 113°
2026-04-27 06:27 52.30846 4.77208 -2 ft 0 kts 114°
2026-04-27 06:31 52.30845 4.77216 -2 ft 5 kts 101°
2026-04-27 06:31 52.30841 4.77319 -2 ft 0 kts 91°
2026-04-27 06:32 52.30841 4.77326 -2 ft 2 kts 91°
2026-04-27 06:32 52.30841 4.77335 -2 ft 4 kts 91°
2026-04-27 06:32 52.30841 4.77358 -2 ft 7 kts 91°
2026-04-27 06:32 52.30872 4.77472 -2 ft 13 kts 27°
2026-04-27 06:33 52.30959 4.77475 -2 ft 12 kts
2026-04-27 06:33 52.31042 4.77484 -2 ft 12 kts
2026-04-27 06:33 52.31125 4.77494 -2 ft 12 kts
2026-04-27 06:33 52.31206 4.77503 -2 ft 12 kts
2026-04-27 06:34 52.31282 4.77488 -2 ft 11 kts 329°
2026-04-27 06:34 52.31337 4.77421 -2 ft 11 kts 319°
2026-04-27 06:34 52.31385 4.77334 -2 ft 11 kts 309°
2026-04-27 06:34 52.31429 4.77244 -2 ft 10 kts 309°
2026-04-27 06:35 52.31470 4.77154 -2 ft 10 kts 300°
2026-04-27 06:35 52.31481 4.77045 -2 ft 10 kts 269°
2026-04-27 06:35 52.31477 4.76937 -2 ft 10 kts 266°
2026-04-27 06:35 52.31473 4.76830 -2 ft 9 kts 266°
2026-04-27 06:36 52.31471 4.76731 -2 ft 9 kts 271°
2026-04-27 06:36 52.31469 4.76615 -2 ft 12 kts 267°
2026-04-27 06:36 52.31472 4.76449 -2 ft 16 kts 301°
2026-04-27 06:36 52.31531 4.76269 -2 ft 20 kts 278°
2026-04-27 06:37 52.31531 4.75989 -2 ft 29 kts 265°
2026-04-27 06:37 52.31517 4.75615 -2 ft 36 kts 268°
2026-04-27 06:37 52.31499 4.75209 -2 ft 33 kts 257°
2026-04-27 06:37 52.31490 4.74854 -2 ft 30 kts 269°
2026-04-27 06:38 52.31485 4.74527 -2 ft 23 kts 268°
2026-04-27 06:38 52.31499 4.74312 -2 ft 16 kts 321°
2026-04-27 06:38 52.31610 4.74303 -2 ft 16 kts
2026-04-27 06:38 52.31717 4.74316 -2 ft 15 kts
2026-04-27 06:39 52.31820 4.74325 -2 ft 14 kts
2026-04-27 06:39 52.31919 4.74332 -2 ft 15 kts
2026-04-27 06:39 52.32018 4.74293 -2 ft 16 kts 305°
2026-04-27 06:39 52.32034 4.74098 -2 ft 19 kts 272°
2026-04-27 06:40 52.32041 4.73861 -2 ft 21 kts 273°
2026-04-27 06:40 52.32052 4.73614 -2 ft 23 kts 274°
2026-04-27 06:40 52.32086 4.73360 -2 ft 24 kts 306°
2026-04-27 06:40 52.32213 4.73177 -2 ft 25 kts 320°
2026-04-27 06:41 52.32344 4.72999 -2 ft 26 kts 320°
2026-04-27 06:41 52.32443 4.72862 -2 ft 27 kts 320°
2026-04-27 06:41 52.32632 4.72591 -2 ft 29 kts 318°
2026-04-27 06:41 52.32765 4.72358 -2 ft 28 kts 311°
2026-04-27 06:42 52.32895 4.72117 -2 ft 29 kts 311°
2026-04-27 06:42 52.33032 4.71864 -2 ft 30 kts 311°
2026-04-27 06:42 52.33145 4.71591 -2 ft 29 kts 270°
2026-04-27 06:42 52.33025 4.71345 -2 ft 28 kts 221°
2026-04-27 06:43 52.32932 4.71209 -2 ft 10 kts 221°
2026-04-27 06:43 52.32883 4.71129 -2 ft 10 kts 236°
2026-04-27 06:43 52.32864 4.71063 -2 ft 10 kts 262°
2026-04-27 06:43 52.32868 4.70921 -3 ft 9 kts 292°
2026-04-27 06:44 52.32901 4.70895 -3 ft 9 kts
2026-04-27 06:44 52.32960 4.70897 -4 ft 9 kts 357°
2026-04-27 06:44 52.33081 4.70893 -5 ft 55 kts 359°
2026-04-27 06:44 52.33789 4.70928 1 ft 150 kts 15°
2026-04-27 06:45 52.34598 4.71114 310 ft 185 kts
2026-04-27 06:45 52.36050 4.71262 952 ft 234 kts
2026-04-27 06:45 52.37648 4.71373 2628 ft 224 kts
2026-04-27 06:45 52.39218 4.71492 3820 ft 231 kts
2026-04-27 06:46 52.40812 4.71620 4625 ft 234 kts
2026-04-27 06:46 52.42475 4.71492 5230 ft 240 kts 344°
2026-04-27 06:46 52.43968 4.70355 5928 ft 243 kts 326°
2026-04-27 06:46 52.45301 4.68485 6417 ft 262 kts 316°
2026-04-27 06:47 52.46395 4.66054 7132 ft 272 kts 291°
2026-04-27 06:47 52.46723 4.62973 8087 ft 277 kts 273°
2026-04-27 06:47 52.46748 4.59807 8997 ft 281 kts 271°
2026-04-27 06:47 52.46714 4.56573 9913 ft 286 kts 264°
2026-04-27 06:48 52.46037 4.53524 10861 ft 291 kts 238°
2026-04-27 06:48 52.44591 4.51105 11198 ft 318 kts 216°
2026-04-27 06:48 52.42668 4.48917 11443 ft 344 kts 222°
2026-04-27 06:48 52.41184 4.45780 11972 ft 354 kts 242°
2026-04-27 06:49 52.40025 4.42221 12823 ft 356 kts 244°
2026-04-27 06:49 52.38877 4.38598 13697 ft 359 kts 244°
2026-04-27 06:49 52.37717 4.34953 14541 ft 363 kts 244°
2026-04-27 06:49 52.36546 4.31311 15382 ft 366 kts 244°
2026-04-27 06:50 52.35352 4.27630 16253 ft 369 kts 244°
2026-04-27 06:50 52.34135 4.23903 17065 ft 373 kts 244°
2026-04-27 06:50 52.32900 4.20134 17851 ft 376 kts 244°
2026-04-27 06:50 52.31657 4.16356 18620 ft 380 kts 243°
2026-04-27 06:51 52.30232 4.12675 19320 ft 386 kts 236°
2026-04-27 06:51 52.28596 4.09172 20017 ft 390 kts 234°
2026-04-27 06:51 52.26882 4.05712 20728 ft 393 kts 233°
2026-04-27 06:51 52.25145 4.02235 21394 ft 397 kts 233°
2026-04-27 06:52 52.23404 3.98720 22002 ft 401 kts 233°
2026-04-27 06:52 52.21652 3.95139 22603 ft 405 kts 234°
2026-04-27 06:52 52.19903 3.91532 23195 ft 408 kts 234°
2026-04-27 06:52 52.18137 3.87873 23774 ft 411 kts 234°
2026-04-27 06:53 52.16365 3.84193 24311 ft 415 kts 234°
2026-04-27 06:53 52.14600 3.80529 24844 ft 417 kts 234°
2026-04-27 06:53 52.12808 3.76814 25402 ft 418 kts 234°
2026-04-27 06:53 52.10992 3.73058 25899 ft 422 kts 234°
2026-04-27 06:54 52.09179 3.69307 26402 ft 423 kts 234°
2026-04-27 06:54 52.07353 3.65540 26921 ft 425 kts 234°
2026-04-27 06:54 52.05516 3.61754 27397 ft 427 kts 234°
2026-04-27 06:54 52.03671 3.57958 27845 ft 429 kts 234°
2026-04-27 06:55 52.01821 3.54156 28296 ft 430 kts 234°
2026-04-27 06:55 51.99959 3.50337 28719 ft 432 kts 234°
2026-04-27 06:55 51.98114 3.46465 29121 ft 433 kts 236°
2026-04-27 06:55 51.96329 3.42515 29491 ft 435 kts 237°
2026-04-27 06:56 51.94564 3.38546 29913 ft 434 kts 237°
2026-04-27 06:56 51.92799 3.34593 30560 ft 429 kts 237°
2026-04-27 06:56 51.91046 3.30700 31120 ft 426 kts 236°
2026-04-27 06:56 51.89312 3.26878 31545 ft 425 kts 236°
2026-04-27 06:57 51.87579 3.23040 31923 ft 425 kts 238°
2026-04-27 06:57 51.86129 3.18838 32315 ft 422 kts 248°
2026-04-27 06:57 51.85097 3.14462 32853 ft 416 kts 253°
2026-04-27 06:57 51.84390 3.09982 33247 ft 415 kts 261°
2026-04-27 06:58 51.84044 3.05337 33580 ft 415 kts 264°
2026-04-27 06:58 51.83501 2.96080 34367 ft 412 kts 264°
2026-04-27 06:58 51.83224 2.91455 34668 ft 412 kts 264°
2026-04-27 06:59 51.82935 2.86860 34890 ft 414 kts 264°
2026-04-27 06:59 51.82633 2.82194 35197 ft 414 kts 264°
2026-04-27 06:59 51.82329 2.77594 35483 ft 414 kts 264°
2026-04-27 06:59 51.82019 2.72942 35704 ft 416 kts 264°
2026-04-27 07:00 51.81706 2.68278 35868 ft 418 kts 264°
2026-04-27 07:00 51.81390 2.63611 36168 ft 417 kts 264°
2026-04-27 07:00 51.81069 2.58935 36310 ft 421 kts 264°
2026-04-27 07:01 51.80418 2.49546 36308 ft 423 kts 264°
2026-04-27 07:01 51.79762 2.40172 36297 ft 417 kts 263°
2026-04-27 07:02 51.79107 2.30888 36300 ft 415 kts 263°
2026-04-27 07:02 51.78445 2.21602 36299 ft 414 kts 264°
2026-04-27 07:03 51.77884 2.12355 36317 ft 413 kts 265°
2026-04-27 07:03 51.77868 2.12078 36301 ft 413 kts 265°
2026-04-27 07:04 51.77516 2.05886 36299 ft 413 kts 265°
2026-04-27 07:04 51.77365 2.03260 36314 ft 414 kts 264°
2026-04-27 07:05 51.77232 2.00968 36308 ft 414 kts 264°
2026-04-27 07:05 51.76681 1.91680 36310 ft 415 kts 264°
2026-04-27 07:06 51.76117 1.82399 36308 ft 417 kts 264°
2026-04-27 07:06 51.75540 1.73050 36317 ft 418 kts 264°
2026-04-27 07:07 51.74959 1.63704 36309 ft 419 kts 264°
2026-04-27 07:07 51.74360 1.54340 36313 ft 420 kts 264°
2026-04-27 07:08 51.73748 1.44958 36310 ft 421 kts 264°
2026-04-27 07:08 51.73133 1.35613 36314 ft 421 kts 264°
2026-04-27 07:09 51.72509 1.26218 36314 ft 421 kts 264°
2026-04-27 07:09 51.71880 1.16835 36324 ft 421 kts 263°
2026-04-27 07:10 51.71245 1.07493 36314 ft 421 kts 263°
2026-04-27 07:10 51.70616 0.98121 36327 ft 420 kts 264°
2026-04-27 07:11 51.70584 0.97643 36316 ft 420 kts 264°
2026-04-27 07:13 51.70400 0.94916 36315 ft 420 kts 263°
2026-04-27 07:13 51.69749 0.85560 36317 ft 420 kts 263°
2026-04-27 07:14 51.69097 0.76189 36326 ft 420 kts 263°
2026-04-27 07:14 51.68394 0.66824 36323 ft 421 kts 263°
2026-04-27 07:15 51.67728 0.57453 36317 ft 421 kts 263°
2026-04-27 07:15 51.67064 0.48089 36317 ft 421 kts 263°
2026-04-27 07:16 51.66378 0.38673 35999 ft 428 kts 263°
2026-04-27 07:16 51.66018 0.33885 35340 ft 429 kts 263°
2026-04-27 07:16 51.65657 0.29108 34553 ft 428 kts 263°
2026-04-27 07:16 51.65298 0.24357 33725 ft 427 kts 263°
2026-04-27 07:17 51.65119 0.19675 32863 ft 427 kts 271°
2026-04-27 07:17 51.65427 0.14896 31971 ft 428 kts 278°
2026-04-27 07:17 51.66081 0.10219 31051 ft 431 kts 284°
2026-04-27 07:17 51.67167 0.05681 30128 ft 434 kts 291°
2026-04-27 07:18 51.68413 0.01306 29443 ft 429 kts 292°
2026-04-27 07:18 51.69679 -0.03038 28723 ft 424 kts 292°
2026-04-27 07:18 51.70920 -0.07315 28012 ft 420 kts 292°
2026-04-27 07:18 51.72138 -0.11573 27318 ft 416 kts 292°
2026-04-27 07:19 51.73330 -0.15791 26620 ft 412 kts 292°
2026-04-27 07:19 51.74506 -0.19985 25926 ft 408 kts 292°
2026-04-27 07:19 51.75663 -0.24130 25237 ft 405 kts 292°
2026-04-27 07:19 51.76816 -0.28267 24540 ft 402 kts 292°
2026-04-27 07:20 51.77958 -0.32372 23855 ft 398 kts 292°
2026-04-27 07:20 51.79098 -0.36434 23163 ft 395 kts 295°
2026-04-27 07:20 51.80571 -0.40194 22470 ft 395 kts 307°
2026-04-27 07:20 51.82416 -0.43360 22081 ft 389 kts 316°
2026-04-27 07:21 51.84613 -0.46000 21723 ft 391 kts 326°
2026-04-27 07:21 51.86946 -0.48238 21390 ft 398 kts 328°
2026-04-27 07:21 51.89352 -0.50502 21027 ft 401 kts 327°
2026-04-27 07:21 51.91736 -0.52788 20664 ft 397 kts 327°
2026-04-27 07:22 51.94100 -0.55092 20305 ft 394 kts 327°
2026-04-27 07:22 51.96438 -0.57384 19955 ft 391 kts 327°
2026-04-27 07:22 51.98763 -0.59658 19599 ft 389 kts 327°
2026-04-27 07:22 52.01073 -0.61918 19267 ft 386 kts 327°
2026-04-27 07:23 52.03368 -0.64166 18928 ft 384 kts 327°
2026-04-27 07:23 52.05642 -0.66397 18582 ft 380 kts 327°
2026-04-27 07:23 52.07903 -0.68617 18246 ft 377 kts 327°
2026-04-27 07:23 52.10147 -0.70824 17910 ft 375 kts 327°
2026-04-27 07:24 52.12339 -0.72984 17584 ft 372 kts 327°
2026-04-27 07:24 52.14578 -0.75192 17249 ft 370 kts 327°
2026-04-27 07:24 52.16747 -0.77330 16926 ft 369 kts 327°
2026-04-27 07:24 52.18936 -0.79494 16600 ft 367 kts 327°
2026-04-27 07:25 52.21117 -0.81653 16278 ft 366 kts 327°
2026-04-27 07:25 52.23177 -0.84033 15914 ft 363 kts 314°
2026-04-27 07:25 52.24701 -0.87280 15630 ft 359 kts 298°
2026-04-27 07:25 52.25628 -0.91049 15324 ft 358 kts 284°
2026-04-27 07:26 52.26184 -0.94998 15001 ft 356 kts 282°
2026-04-27 07:26 52.26697 -0.98957 14680 ft 355 kts 282°
2026-04-27 07:26 52.27204 -1.02904 14366 ft 354 kts 282°
2026-04-27 07:26 52.27713 -1.06785 14047 ft 353 kts 282°
2026-04-27 07:27 52.28239 -1.10735 13735 ft 351 kts 282°
2026-04-27 07:27 52.28758 -1.14591 13420 ft 349 kts 282°
2026-04-27 07:27 52.29279 -1.18446 13118 ft 348 kts 282°
2026-04-27 07:27 52.29802 -1.22313 12805 ft 345 kts 282°
2026-04-27 07:28 52.30309 -1.26060 12495 ft 332 kts 282°
2026-04-27 07:28 52.30799 -1.29687 12202 ft 321 kts 282°
2026-04-27 07:28 52.31270 -1.33197 11921 ft 311 kts 282°
2026-04-27 07:28 52.31726 -1.36603 11650 ft 302 kts 282°
2026-04-27 07:29 52.32166 -1.39894 11392 ft 293 kts 282°
2026-04-27 07:29 52.32590 -1.43075 11130 ft 281 kts 282°
2026-04-27 07:29 52.33001 -1.46166 10890 ft 276 kts 282°
2026-04-27 07:29 52.33412 -1.49264 10660 ft 281 kts 282°
2026-04-27 07:30 52.33823 -1.52369 10436 ft 281 kts 282°
2026-04-27 07:30 52.34233 -1.55461 10168 ft 275 kts 283°
2026-04-27 07:30 52.34630 -1.58471 9919 ft 268 kts 283°
2026-04-27 07:30 52.35020 -1.61438 9689 ft 266 kts 283°
2026-04-27 07:31 52.35412 -1.64420 9462 ft 268 kts 283°
2026-04-27 07:31 52.35702 -1.67433 9268 ft 270 kts 272°
2026-04-27 07:31 52.35647 -1.70490 9136 ft 270 kts 267°
2026-04-27 07:31 52.35504 -1.73566 8991 ft 271 kts 266°
2026-04-27 07:32 52.35390 -1.75874 8881 ft 272 kts 266°
2026-04-27 07:35 52.35364 -1.76425 8854 ft 273 kts 267°
2026-04-27 07:36 52.35221 -1.79520 8711 ft 273 kts 266°
2026-04-27 07:36 52.35363 -1.82580 8523 ft 268 kts 292°
2026-04-27 07:36 52.36439 -1.84996 8248 ft 263 kts 318°
2026-04-27 07:36 52.37767 -1.86983 8007 ft 262 kts 317°
2026-04-27 07:37 52.39111 -1.89015 7823 ft 263 kts 317°
2026-04-27 07:37 52.40456 -1.91067 7642 ft 265 kts 317°
2026-04-27 07:37 52.41805 -1.93138 7452 ft 264 kts 317°
2026-04-27 07:37 52.42725 -1.94561 7329 ft 264 kts 317°
2026-04-27 07:38 52.44048 -1.96614 7097 ft 262 kts 317°
2026-04-27 07:38 52.45362 -1.98658 6725 ft 261 kts 317°
2026-04-27 07:38 52.46691 -2.00733 6233 ft 266 kts 317°
2026-04-27 07:38 52.48039 -2.02842 5737 ft 269 kts 316°
2026-04-27 07:39 52.49506 -2.04754 5217 ft 273 kts 336°
2026-04-27 07:39 52.51369 -2.05168 4726 ft 274 kts
2026-04-27 07:39 52.53108 -2.04001 4243 ft 276 kts 34°
2026-04-27 07:39 52.54468 -2.01727 3766 ft 278 kts 55°
2026-04-27 07:40 52.55483 -1.99008 3258 ft 280 kts 59°
2026-04-27 07:40 52.56423 -1.96284 2784 ft 275 kts 60°
2026-04-27 07:40 52.57341 -1.93629 2550 ft 257 kts 63°
2026-04-27 07:40 52.57680 -1.90951 2479 ft 227 kts 99°
2026-04-27 07:41 52.57040 -1.88861 2483 ft 196 kts 130°
2026-04-27 07:41 52.56179 -1.87238 2462 ft 176 kts 137°
2026-04-27 07:41 52.55267 -1.85928 2415 ft 176 kts 141°
2026-04-27 07:41 52.54297 -1.84735 2201 ft 167 kts 145°
2026-04-27 07:42 52.53366 -1.83687 1973 ft 157 kts 146°
2026-04-27 07:42 52.52488 -1.82712 1776 ft 150 kts 146°
2026-04-27 07:42 52.51639 -1.81769 1587 ft 144 kts 145°
2026-04-27 07:42 52.50829 -1.80867 1432 ft 140 kts 145°
2026-04-27 07:43 52.50032 -1.79977 1215 ft 137 kts 146°
2026-04-27 07:43 52.49247 -1.79103 1039 ft 137 kts 146°
2026-04-27 07:43 52.48463 -1.78230 852 ft 136 kts 145°
2026-04-27 07:43 52.47677 -1.77354 677 ft 136 kts 146°
2026-04-27 07:44 52.46895 -1.76483 488 ft 135 kts 146°
2026-04-27 07:44 52.46124 -1.75623 329 ft 134 kts 146°
2026-04-27 07:44 52.45456 -1.74875 322 ft 76 kts 146°
2026-04-27 07:44 52.45277 -1.74678 323 ft 9 kts 146°
2026-04-27 07:45 52.45255 -1.74654 328 ft 9 kts 146°